Home   Weather   Gander   Past weeks

Flag for Canada Past Weather in Gander, Newfoundland and Labrador, Canada — Yesterday and Last 2 Weeks

Now
30 °F

Mostly cloudy.


Feels Like: 23 °F
Forecast: 24 / 32 °F
Wind: 8 mph from South

Location: Gander Int. Airport

Current Time: Dec 8, 2016 at 10:26:07 pm

Latest Report: Dec 8, 2016 at 9:30 pm


Visibility: 20 mi

Pressure: 29.67 "Hg

Humidity: 93%

Dew Point: 28 °F

Location of GanderLocation

Past Weather in Gander — Graph

°F

Gander Temperature Yesterday

Maximum temperature yesterday: 21 °F (at 12:30 pm)
Minimum temperature yesterday: 18 °F (at 12:30 am)
Average temperature yesterday: 19 °F

High & Low Weather Summary for the Past Weeks

 TemperatureHumidityPressure
High43 °F (Nov 28, 12:30 pm)100% (Nov 23, 8:30 pm)30.32 "Hg (Nov 23, 8:30 pm)
Low16 °F (Dec 8, 3:30 am)66% (Nov 28, 12:30 pm)29.44 "Hg (Nov 28, 4:30 am)
Average28 °F87%29.84 "Hg
* Reported Nov 23 8:30 pm — Dec 8 8:30 pm, Gander, Weather by CustomWeather, © 2016

Note: Actual official high and low records may vary slightly from our data, if they occured in-between our weather recording intervals... More about our weather records

Advertising

Gander Weather History for the Previous 24 Hours

Scroll right to see more
 ConditionsComfort  
Time TempWeatherWind HumidityBarometerVisibility
8:30 pm
Thu, Dec 8
30 °FMostly cloudy.10 mph93%29.70 "Hg20 mi
7:30 pm30 °FLow clouds.12 mph86%29.72 "Hg20 mi
6:30 pm30 °FMostly cloudy.10 mph86%29.74 "Hg20 mi
5:30 pm30 °FMostly cloudy.6 mph80%29.76 "Hg20 mi
4:30 pm28 °FPartly cloudy.9 mph86%29.77 "Hg20 mi
3:30 pm28 °FMostly cloudy.8 mph86%29.78 "Hg20 mi
2:30 pm28 °FPartly sunny.9 mph80%29.78 "Hg20 mi
1:30 pm28 °FPartly sunny.10 mph80%29.80 "Hg20 mi
12:30 pm27 °FPartly sunny.12 mph80%29.81 "Hg20 mi
11:30 am25 °FPartly sunny.8 mph80%29.82 "Hg20 mi
10:30 am23 °FBroken clouds.10 mph86%29.84 "Hg20 mi
9:30 am23 °FBroken clouds.9 mph80%29.84 "Hg20 mi
8:30 am19 °FMostly cloudy.9 mph93%29.83 "Hg20 mi
7:30 am18 °FMostly cloudy.6 mph93%29.83 "Hg20 mi
6:30 am18 °FPassing clouds.8 mph93%29.85 "Hg15 mi
5:30 am18 °FMostly cloudy.8 mph86%29.85 "Hg15 mi
4:30 am18 °FMostly cloudy.7 mph86%29.86 "Hg15 mi
3:30 am16 °FPassing clouds.12 mph86%29.88 "Hg15 mi
2:30 am18 °FPartly cloudy.9 mph79%29.87 "Hg15 mi
1:30 am18 °FOvercast.9 mph86%29.85 "Hg15 mi
12:30 am18 °FSnow flurries. Overcast.8 mph86%29.83 "Hg15 mi
11:30 pm
Wed, Dec 7
18 °FSnow flurries. Overcast.13 mph86%29.83 "Hg15 mi
10:30 pm18 °FOvercast.14 mph86%29.83 "Hg20 mi
Weather by CustomWeather, © 2016

See weather overviewHow to use our weather pages